Location: Shepherdstown, WV
(39.4326°N, 77.8042°W)
Time: 14:31:19
(UTC-04:00)

Vanguard 1 Rocket - Pass Details

Date: 10 August 2021
Orbit: 650 x 4226 km, 34.3° (Epoch: 20 September)

Event Time Altitude Azimuth Distance (km) Brightness Sun altitude
Rises 13:35:08 0° 280° (W) 7,770 12.2 65.6°
Reaches altitude 10° 13:41:15 10° 277° (W) 6,270 11.8 65.3°
Maximum altitude 13:57:49 52° 208° (SSW) 2,416 11.8 64.3°
Drops below altitude 10° 14:06:23 10° 134° (SE) 3,382 10.6 63.5°
Sets 14:08:41 0° 129° (SE) 4,057 10.8 63.3°
